DW1958 Weather Reports


Display with metric or nautical units.
time (UTC)temp
F
wind
direction
speed
MPH
gust
MPH
rain 1hr
in
rain 24hr
in
rain mn
in
humidity
%
barometer
mb
20260505031825 48 0 0.0 4.0 0.00 0.00 0.00 79 1001.1
20260505030925 48 0 0.0 4.0 0.00 0.00 0.00 80 1001.3
20260505030025 48 0 0.0 3.0 0.00 0.00 0.00 80 1001.4
20260505025125 48 35 1.0 5.0 0.00 0.00 0.00 78 1001.6
20260505024225 48 22 1.0 5.0 0.00 0.00 0.00 78 1001.7
20260505023325 48 20 1.0 4.0 0.00 0.00 0.00 77 1002.0
20260505022425 49 21 1.0 5.0 0.00 0.00 0.00 75 1002.3
20260505020625 49 0 0.0 2.0 0.00 0.00 0.00 70 1002.8
20260505015725 50 0 0.0 1.0 0.00 0.00 0.00 68 1003.0
20260505013926 50 0 0.0 1.0 0.00 0.00 0.00 65 1003.3
20260505013025 51 0 0.0 3.0 0.00 0.00 0.00 65 1003.4
20260505012125 51 0 0.0 4.0 0.00 0.00 0.00 65 1003.4
20260505011225 52 0 0.0 4.0 0.00 0.00 0.00 65 1003.5
20260505010325 52 36 1.0 6.0 0.00 0.00 0.00 64 1003.7
20260505005425 52 0 0.0 5.0 0.00 0.00 0.00 63 1003.8
20260505004525 52 20 1.0 4.0 0.00 0.00 0.00 64 1004.0
20260505003625 52 0 0.0 5.0 0.00 0.00 0.00 64 1004.1
20260505002725 53 0 0.0 3.0 0.00 0.00 0.00 63 1004.2
20260505001825 53 0 0.0 3.0 0.00 0.00 0.00 62 1004.5
20260505000925 53 54 1.0 5.0 0.00 0.00 0.00 62 1004.6
20260505000025 53 48 1.0 5.0 0.00 0.00 0.00 61 1004.8
20260504235125 52 42 1.0 4.0 0.00 0.00 0.00 62 1005.0
20260504234225 52 0 0.0 4.0 0.00 0.00 0.00 62 1005.2
20260504233325 52 53 1.0 4.0 0.00 0.00 0.00 63 1005.3
20260504232425 52 53 1.0 4.0 0.00 0.00 0.00 62 1005.5
20260504231525 52 49 1.0 4.0 0.00 0.00 0.00 62 1005.8
20260504230625 52 0 0.0 4.0 0.00 0.00 0.00 61 1006.1
20260504225725 52 0 0.0 4.0 0.00 0.00 0.00 61 1006.3
20260504223925 52 58 2.0 6.0 0.00 0.00 0.00 61 1006.7
20260504223025 52 0 0.0 4.0 0.00 0.00 0.00 61 1006.8
20260504222125 52 73 1.0 7.0 0.00 0.00 0.00 62 1007.0
20260504221225 52 99 1.0 6.0 0.00 0.00 0.00 62 1007.2
20260504220325 52 84 1.0 4.0 0.00 0.00 0.00 62 1007.2
20260504215425 52 0 0.0 3.0 0.00 0.00 0.00 62 1007.4
20260504214525 52 70 3.0 6.0 0.00 0.00 0.00 62 1007.5
20260504212725 52 70 1.0 6.0 0.00 0.00 0.00 62 1007.7
20260504210925 52 66 1.0 7.0 0.00 0.00 0.00 62 1008.1
20260504210025 52 86 1.0 6.0 0.00 0.00 0.00 62 1008.3
20260504205125 51 75 2.0 7.0 0.00 0.00 0.00 63 1008.4
20260504204225 51 80 1.0 7.0 0.00 0.00 0.00 64 1008.4
20260504203325 50 53 3.0 11.0 0.00 0.00 0.00 66 1008.4
20260504202425 50 51 2.0 7.0 0.00 0.00 0.00 66 1008.6
20260504201525 50 63 2.0 7.0 0.00 0.00 0.00 66 1008.8
20260504200625 50 68 3.0 8.0 0.00 0.00 0.00 67 1009.0
20260504195725 50 64 3.0 10.0 0.00 0.00 0.00 67 1009.1
20260504193925 49 59 2.0 10.0 0.00 0.00 0.00 68 1009.5
20260504193025 49 56 3.0 10.0 0.00 0.00 0.00 68 1009.7
20260504192125 48 71 2.0 7.0 0.00 0.00 0.00 70 1009.9
20260504191225 47 61 1.0 5.0 0.00 0.00 0.00 72 1010.0
20260504190325 46 66 1.0 5.0 0.00 0.00 0.00 72 1010.1
20260504185425 46 61 2.0 6.0 0.00 0.00 0.00 73 1010.1
20260504184525 45 49 2.0 5.0 0.00 0.00 0.00 75 1010.2
20260504183625 44 0 0.0 3.0 0.00 0.00 0.00 77 1010.4
20260504182725 43 0 0.0 4.0 0.00 0.00 0.00 78 1010.4
20260504180925 42 0 0.0 1.0 0.00 0.00 0.00 80 1010.8
20260504180025 41 0 0.0 0.0 0.00 0.00 0.00 78 1011.0
20260504174225 40 0 0.0 0.0 0.00 0.00 0.00 78 1011.2
20260504173325 40 0 0.0 0.0 0.00 0.00 0.00 80 1011.2
20260504172425 39 0 0.0 0.0 0.00 0.00 0.00 79 1011.3
20260504171525 39 0 0.0 2.0 0.00 0.00 0.00 79 1011.4
20260504170625 38 0 0.0 0.0 0.00 0.00 0.00 80 1011.4
20260504160325 35 0 0.0 0.0 0.00 0.00 0.00 85 1011.7
20260504150925 34 0 0.0 1.0 0.00 0.00 0.00 88 1011.8
20260504140625 33 0 0.0 0.0 0.00 0.00 0.00 90 1011.8
20260504130325 32 0 0.0 0.0 0.00 0.00 0.00 89 1011.8
20260504110625 34 0 0.0 0.0 0.00 0.00 0.00 87 1012.0
20260504100325 34 0 0.0 2.0 0.00 0.00 0.00 84 1012.2
20260504081525 37 0 0.0 0.0 0.00 0.00 0.00 80 1012.5
20260504080625 37 0 0.0 0.0 0.00 0.00 0.00 79 1012.5
20260504070325 39 0 0.0 0.0 0.00 0.00 0.00 78 1012.7
20260504050625 45 0 0.0 1.0 0.00 0.00 0.00 67 1012.7
20260504045725 45 0 0.0 1.0 0.00 0.00 0.00 66 1012.8
20260504044825 45 0 0.0 0.0 0.00 0.00 0.00 61 1012.9
20260504043925 46 0 0.0 0.0 0.00 0.00 0.00 59 1013.0
20260504043026 46 0 0.0 0.0 0.00 0.00 0.00 57 1013.0
20260504042125 47 0 0.0 2.0 0.00 0.00 0.00 57 1013.0
20260504041226 47 0 0.0 0.0 0.00 0.00 0.00 57 1013.0
20260504040325 48 0 0.0 4.0 0.00 0.00 0.00 56 1013.0
20260504034525 48 0 0.0 3.0 0.00 0.00 0.00 55 1013.2